Regional Weather Roundup
Issued by NWS Midland/Odessa, TX

Skip options and go directly to product.
Home | Oldest Version | Next Version | Current Version | All | Text Only | Save Text | Print | Product List | Glossary On

Skip product version selection by date and time.   
172
ASUS44 KMAF 270501
RWRMAF
MIDLAND AREA WEATHER ROUNDUP
NATIONAL WEATHER SERVICE MIDLAND TX
1200 AM CDT FRI MAR 27 2015

...IN SOUTHWEST TEXAS AND SOUTHEAST NEW MEXICO...

CITY           SKY/WX    TMP DP  RH WIND       PRES   REMARKS
ALPINE         CLEAR     41  33  73 W8        30.36R WCI  36
ANDREWS        FAIR      49  25  39 W6        30.24S
ARTESIA        CLEAR     45  25  45 S12       30.22F WCI  39
BIG SPRING     CLEAR     47  27  44 SE8       30.24F
CARLSBAD       CLEAR     47  30  51 S8        30.23S
DRYDEN           N/A     53  38  56 NW8       30.25R
FORT STOCKTON  CLEAR     46  34  62 SW9       30.27S
GUAD PASS      CLEAR     49  24  37 SW15      30.29F
HOBBS          CLEAR     41  19  42 W8        30.25S WCI  36
MARFA          CLEAR     37  30  75 NW5       30.32S WCI  34
MIDLAND AIRPK  CLEAR     54  27  35 SW5       30.24S
MIDLAND INTL   CLEAR     52  31  44 SW8       30.23S
ODESSA         CLEAR     50  30  46 SW6       30.24S
PECOS          CLEAR     46  32  60 S8        30.26S
PRESIDIO       FAIR      60  35  39 NE10      30.24R
SEMINOLE       CLEAR     45  23  41 SW8       30.24S
SNYDER         CLEAR     48  25  39 S5        30.21F
WINK           CLEAR     48  26  42 SW9       30.24R
$$
...OTHER STATIONS IN TEXAS...

CITY           SKY/WX    TMP DP  RH WIND       PRES   REMARKS
ABILENE        CLEAR     45  32  60 S8        30.20F
AMARILLO       PTCLDY    49  20  31 CALM      30.18S
AUSTIN         CLEAR     51  36  56 NW7       30.19R
BROWNSVILLE    PTCLDY    61  52  72 NW7       30.14R
CORPUS CHRISTI PTCLDY    61  51  70 N8        30.14R
DALLAS FTW     CLEAR     52  32  46 CALM      30.15S
DEL RIO        CLEAR     54  40  59 CALM      30.22R
EL PASO        CLEAR     57  27  31 S6        30.23S
HOUSTON INT    PTCLDY    56  47  71 NW9       30.11R
LUBBOCK        CLEAR     44  21  40 SW7       30.19S
SAN ANGELO     CLEAR     46  33  60 S6        30.23R
SAN ANTONIO    CLEAR     51  39  63 NW3       30.21R
WACO           CLEAR     50  36  58 NW8       30.19R
WICHITA FALLS  NOT AVBL
$$
...OTHER LOCATIONS IN NEW MEXICO...

CITY           SKY/WX    TMP DP  RH WIND       PRES   REMARKS
ALAMAGORDO     PTCLDY    48  18  29 SE5       30.24S
ALBUQUERQUE    PTCLDY    52  19  27 S3        30.26S
CANNON AFB     CLEAR     45  21  38 SW9       30.21S
CLOVIS         CLEAR     45  19  36 W10       30.21S WCI  39
HOLLOMAN AFB   NOT AVBL
ROSWELL        CLEAR     46  25  43 SW8       30.22S
RUIDOSO        CLEAR     45   9  23 SW5       30.32R
SANTA FE       PTCLDY    42  16  34 E7        30.26R WCI  38
TRUTH OR CONSE CLEAR     52  21  29 W6        30.24S
TUCUMCARI      CLEAR     45  21  38 SW6       30.18R
$$

USA.gov is the U.S. government's official web portal to all federal, state and local government web resources and services.